Regional Weather Roundup
Issued by NWS Newport/Morehead, NC

Current Version | Previous Version | Graphics & Text | Print | Product List | Glossary On
Versions: 1 2 3 4 5 6 7 8 9 10 11 12 13 14 15 16 17 18 19 20 21 22 23 24 25 26 27 28 29 30 31 32 33 34 35 36 37 38 39 40 41 42 43 44 45 46 47 48 49 50
000 ASUS42 KMHX 220413 RWRMHX WEATHER ROUNDUP FOR EASTERN NORTH CAROLINA NATIONAL WEATHER SERVICE NEWPORT/MOREHEAD CITY NC 1200 AM EDT SUN OCT 22 2017 NOTE: "FAIR" INDICATES FEW OR NO CLOUDS BELOW 12,000 FEET WITH NO SIGNIFICANT WEATHER AND/OR OBSTRUCTIONS TO VISIBILITY NCZ015>017-031-032-045>047-102-103-220500- NORTH COAST CITY SKY/WX TMP DP RH WIND PRES REMARKS EDENTON PTCLDY 59 57 93 CALM 30.36F ELIZABETH CITY PTCLDY 60 58 92 CALM 30.35F KITTY HAWK CLEAR 65 56 73 CALM 30.34F MANTEO PTCLDY N/A N/A N/A CALM 30.36S $$ NCZ045>047-081-094-103-104-220500- CENTRAL COAST CITY SKY/WX TMP DP RH WIND PRES REMARKS FRISCO CLEAR 67 64 90 NE6 30.34S $$ NCZ095-097-098-100-101-220500- SOUTHERN COAST CITY SKY/WX TMP DP RH WIND PRES REMARKS BEAUFORT PTCLDY 61 59 93 NE5 30.34S CEDAR ISLAND NOT AVBL JACKSONVILLE PTCLDY 62 59 90 CALM 30.33F PINEY ISLAND N/A N/A N/A N/A E6 30.34S WILMINGTON CLEAR 60 59 96 CALM 30.32F $$ NCZ011>013-027>030-043-044-078>080-089-090>093-098-220500- COASTAL PLAIN CITY SKY/WX TMP DP RH WIND PRES REMARKS AHOSKIE CLEAR 55 55 100 CALM 30.35F CLINTON NOT AVBL ELIZABETHTOWN NOT AVBL GOLDSBORO CLOUDY 57 54 90 E5 30.32F FOG GREENVILLE CLOUDY 59 59 100 CALM 30.35S HAVELOCK N/A 59 58 96 CALM 30.35F KENANSVILLE CLOUDY 54 52 94 CALM 30.34F KINSTON PTCLDY 57 55 94 CALM 30.35S NEW BERN MOCLDY 59 59 100 CALM 30.35F RICHLANDS CLOUDY 56 55 97 NE5 30.34F ROCKY MOUNT CLOUDY 59 57 93 CALM 30.34F WASHINGTON PTCLDY 60 58 93 CALM 30.35F WHITEVILLE PTCLDY 60 59 96 CALM 30.32S $$ AMZ130-135-150-152-154-156-158-170-250-252-270-ANZ085-086-088-633-658-670-220500- MARINE OBSERVATIONS STATION/POSITION TIME TEMP WIND PRES WAVE SWELL AIR SEA DIR/SP/G HT/PER HT/PER (UTC) (F) (DEG/KT/KT) (MB) (FT/S) (FT/S) CHESAPEAKE LIGHT NOT AVBL 64 E VA BEACH 0350 68 69 90/ 4/ 4 1028.4 3/ 8 2/ 8 DUCK 0348 68 70 80/ 5/ 6 1027.5 2 E DUCK 0400 70 N/A 2/ 8 OREGON INLET 0348 50/ 5/ 8 N/A 13E OREGON INLT 0348 73 N/A 2/ 8 2/ 8 HATTERAS CG 0348 69 72 50/ 4/ 6 1027.1 DIAMOND BUOY 0350 75 81 80/ 8/ 12 1026.9 3/ 9 3/ 9 CAPE LOOKOUT 0400 73 40/ 9/ 10 1026.8 BEAUFORT LAB 0348 64 73 40/ 4/ 5 1027.3 30 SE NEW RVR IN 0308 74 60/ 12/ 16 1026.8 30 SE NEW RVR IN NOT AVBL 27 SE WRIGHTSVLE 0308 74 76 80/ 12/ 17 1026.8 5 SE WRIGHTSVLE 0308 73 74 100/ 10/ 16 1026.8 225 S CAPE HAT 0350 76 80 90/ 12/ 16 1025.6 4/ 8 3/ 8 41 SE CHARLESTON 0350 78 80 100/ 14/ 17 1024.5 4/ 9 2/ 9 $$

USA.gov is the U.S. government's official web portal to all federal, state and local government web resources and services.